THOR ABLESTAR DEB, 3164

Orbit data source: Space-Track

THOR ABLESTAR DEB, 3164 is space debris in LEO originally from a launch on Thu, 29 Jun 1961 UTC launched from the Air Force Eastern Test Range (AFETR). Debris objects in space refer to the collection of defunct objects orbiting the Earth. Examples of debris include non-operational satellites, rocket bodies, and fragments generated from explosions, collisions, or faulty payload assembly.

Loading next visibility...
Identifier
3164, 1961-015HZ
Orbit
LEO
Country
Flag of USUS
Related business
Manufacturer
Unknown
Mission
Spacecraft
Bus & Motor
Unknown
Mass
Unknown
Launch date (UTC)
1961-06-29 (65 years ago)
Launch vehicle
Unknown
Launch site
Air Force Eastern Test Range (AFETR)
Object type
Payload
Rocket body
Debris
Shape & HBR
Unknown shape, 1.1 m
Radar Cross Section
Small (<0.1 m²)

Expand to show TLE details & history
Last TLE update: 20 hours ago

TLE from 20 hours ago
0 THOR ABLESTAR DEB
1 03164U 61015HZ  26129.53166951  .00000575  00000-0  40821-3 0  9998
2 03164  66.7459 186.4949 0040256  71.4889 289.0564 14.04377372 82381
Epoch: 2026-05-09T12:45Z
TLE epoch observation values (Epoch: 2026-05-09T12:45:36.245Z)
Latitude
-0.00005°
Longitude
127.7461°
Altitude
871.328 km
Speed
7.422 km/s
True Right ascension
12h 25m 58s
True Declination
0° 00' 00"
Sunlit
Object was in full shadow at epoch
Visualization orbit readout
Latitude
Unknown
Longitude
Unknown
Altitude
Unknown
Speed
Unknown
Apparent Right ascension
Unknown
Apparent Declination
Unknown
Sunlit
N/A
Visualization observer readout
Local Sidereal Time
17:24:07
Azimuth
Unknown
Elevation
Unknown
Doppler factor
Unknown
Orbital elements
Apogee altitude
906.272 km
Perigee altitude
847.859 km
Semi-major axis
7,255.203 km
Eccentricity
0.00403
Inclination
66.7459°
RAAN
186.4949°
Arg. of periapsis
71.4889°
True anomaly
288.61967°
Mean anomaly
289.0564°
Eccentric anomaly
288.8381°
Mean motion
3.51212 °/min
Orbital period
102.5 mins
BSTAR
0.00040821
Loading maneuver chart data...
Computing Atmospheric mass density...

Documentation

Showing up to 5 results
|